Location: Newark
(34.9500°N, 139.9667°E)
Time: 22:46:18
(UTC+00:00)

deb Explorer IX - Pass Details

Date: 10 December 2019
Orbit: 548 x 1101 km, 38.8° (Epoch: 21 January)

Event Time Altitude Azimuth Distance (km) Brightness Sun altitude
Rises 09:38:28 0° 279° (W) 3,536 ? -25.9°
Reaches altitude 10° 09:40:58 10° 283° (WNW) 2,671 ? -26.4°
Maximum altitude 09:47:29 64° 4° (N) 1,135 ? -27.7°
Enters shadow 09:48:08 61° 33° (NNE) 1,169 ? -27.8°
